Time,TemperatureF,DewpointF,PressureIn,WindDirection,WindDirectionDegrees,WindSpeedMPH,WindSpeedGustMPH,Humidity,HourlyPrecipIn,Conditions,Clouds,dailyrainin,SoftwareType,DateUTC
2013-01-25 08:20:00,45.1,43.8,30.28,NNW,329,0.0,0.0,95,0.00,,,0.00,Wunderground v.1.15,2013-01-25 15:20:00,
2013-01-25 08:30:00,46.3,44.4,30.28,WNW,294,0.0,0.0,93,0.00,,,0.00,Wunderground v.1.15,2013-01-25 15:30:00,
2013-01-25 08:40:00,46.9,44.7,30.28,WNW,294,0.0,0.0,92,0.00,,,0.00,Wunderground v.1.15,2013-01-25 15:40:00,
2013-01-25 08:50:00,47.3,44.8,30.28,NNE,15,0.0,0.0,91,0.00,,,0.00,Wunderground v.1.15,2013-01-25 15:50:00,
2013-01-25 09:00:00,47.2,45.0,30.28,NNE,24,0.0,0.0,92,0.00,,,0.00,Wunderground v.1.15,2013-01-25 16:00:00,
2013-01-25 09:10:00,47.2,45.0,30.28,NNE,30,0.0,1.0,92,0.00,,,0.00,Wunderground v.1.15,2013-01-25 16:10:00,
2013-01-25 09:20:00,47.5,45.6,30.28,NNE,30,0.0,0.0,93,0.00,,,0.00,Wunderground v.1.15,2013-01-25 16:20:00,
2013-01-25 09:30:00,47.8,45.9,30.28,ENE,67,0.0,1.0,93,0.00,,,0.00,Wunderground v.1.15,2013-01-25 16:30:00,
2013-01-25 09:40:00,47.8,45.6,30.28,SSW,213,1.0,2.0,92,0.00,,,0.00,Wunderground v.1.15,2013-01-25 16:40:00,
2013-01-25 09:50:00,47.7,45.8,30.29,South,190,1.0,1.0,93,0.00,,,0.00,Wunderground v.1.15,2013-01-25 16:50:00,
2013-01-25 10:00:00,48.0,46.1,30.29,South,188,2.0,2.0,93,0.00,,,0.00,Wunderground v.1.15,2013-01-25 17:00:00,
2013-01-25 10:10:00,48.6,46.7,30.28,WSW,240,1.0,1.0,93,0.00,,,0.00,Wunderground v.1.15,2013-01-25 17:10:00,
2013-01-25 10:20:00,49.5,47.0,30.28,WNW,294,1.0,1.0,91,0.00,,,0.00,Wunderground v.1.15,2013-01-25 17:20:00,
2013-01-25 10:30:00,50.4,47.3,30.28,SW,223,0.0,0.0,89,0.00,,,0.00,Wunderground v.1.15,2013-01-25 17:30:00,
2013-01-25 10:40:00,51.3,47.6,30.29,SW,228,1.0,1.0,87,0.00,,,0.00,Wunderground v.1.15,2013-01-25 17:40:00,
2013-01-25 10:50:00,52.4,47.4,30.28,West,277,0.0,0.0,83,0.00,,,0.00,Wunderground v.1.15,2013-01-25 17:50:00,
2013-01-25 11:00:00,53.9,47.9,30.28,NE,34,0.0,0.0,80,0.00,,,0.00,Wunderground v.1.15,2013-01-25 18:00:00,
2013-01-25 11:10:00,54.7,47.6,30.27,WSW,248,0.0,0.0,77,0.00,,,0.00,Wunderground v.1.15,2013-01-25 18:10:00,
2013-01-25 11:20:00,55.5,47.7,30.26,North,359,1.0,1.0,75,0.00,,,0.00,Wunderground v.1.15,2013-01-25 18:20:00,
2013-01-25 11:40:00,56.7,47.4,30.25,NE,37,0.0,0.0,71,0.00,,,0.00,Wunderground v.1.15,2013-01-25 18:40:00,
2013-01-25 11:50:00,57.1,47.8,30.25,SE,136,0.0,1.0,71,0.00,,,0.00,Wunderground v.1.15,2013-01-25 18:50:00,
2013-01-25 12:00:00,57.4,47.7,30.24,East,79,1.0,1.0,70,0.00,,,0.00,Wunderground v.1.15,2013-01-25 19:00:00,
2013-01-25 12:20:00,57.9,48.2,30.22,East,94,1.0,1.0,70,0.00,,,0.00,Wunderground v.1.15,2013-01-25 19:20:00,
2013-01-25 12:30:00,58.4,47.5,30.22,East,86,1.0,1.0,67,0.00,,,0.00,Wunderground v.1.15,2013-01-25 19:30:00,
2013-01-25 12:40:00,58.6,48.1,30.21,ENE,59,1.0,1.0,68,0.00,,,0.00,Wunderground v.1.15,2013-01-25 19:40:00,
2013-01-25 12:50:00,58.7,47.4,30.21,NE,50,1.0,1.0,66,0.00,,,0.00,Wunderground v.1.15,2013-01-25 19:50:00,
2013-01-25 13:00:00,58.8,47.5,30.20,East,82,1.0,1.0,66,0.00,,,0.00,Wunderground v.1.15,2013-01-25 20:00:00,
2013-01-25 13:10:00,59.2,47.8,30.19,ENE,64,1.0,1.0,66,0.00,,,0.00,Wunderground v.1.15,2013-01-25 20:10:00,
2013-01-25 13:20:00,59.5,48.1,30.19,NE,50,1.0,4.0,66,0.00,,,0.00,Wunderground v.1.15,2013-01-25 20:20:00,
2013-01-25 13:31:00,60.5,48.3,30.18,ESE,115,2.0,2.0,64,0.00,,,0.00,Wunderground v.1.15,2013-01-25 20:31:00,
2013-01-25 13:40:00,61.3,48.2,30.18,ENE,66,2.0,4.0,62,0.00,,,0.00,Wunderground v.1.15,2013-01-25 20:40:00,
2013-01-25 13:50:00,60.9,47.8,30.17,NE,48,2.0,3.0,62,0.00,,,0.00,Wunderground v.1.15,2013-01-25 20:50:00,
2013-01-25 14:00:00,61.0,47.9,30.17,NNE,30,2.0,2.0,62,0.00,,,0.00,Wunderground v.1.15,2013-01-25 21:00:00,
2013-01-25 14:10:00,61.0,47.9,30.17,ENE,62,2.0,2.0,62,0.00,,,0.00,Wunderground v.1.15,2013-01-25 21:10:00,
2013-01-25 14:20:00,61.4,47.8,30.16,NW,322,2.0,2.0,61,0.00,,,0.00,Wunderground v.1.15,2013-01-25 21:20:00,
2013-01-25 14:30:00,62.0,48.0,30.15,SSE,154,2.0,2.0,60,0.00,,,0.00,Wunderground v.1.15,2013-01-25 21:30:00,
2013-01-25 14:40:00,61.2,47.2,30.15,NE,48,2.0,2.0,60,0.00,,,0.00,Wunderground v.1.15,2013-01-25 21:40:00,
2013-01-25 14:50:00,61.2,47.2,30.15,NNE,17,1.0,4.0,60,0.00,,,0.00,Wunderground v.1.15,2013-01-25 21:50:00,
2013-01-25 15:00:00,61.1,47.1,30.15,East,83,2.0,2.0,60,0.00,,,0.00,Wunderground v.1.15,2013-01-25 22:00:00,
2013-01-25 15:10:00,61.3,46.8,30.15,North,359,1.0,1.0,59,0.00,,,0.00,Wunderground v.1.15,2013-01-25 22:10:00,
2013-01-25 15:20:00,61.8,47.3,30.15,SSE,162,1.0,1.0,59,0.00,,,0.00,Wunderground v.1.15,2013-01-25 22:20:00,
2013-01-25 15:30:00,61.9,47.0,30.14,NNE,12,1.0,2.0,58,0.00,,,0.00,Wunderground v.1.15,2013-01-25 22:30:00,
2013-01-25 15:40:00,61.6,47.1,30.14,NE,50,1.0,2.0,59,0.00,,,0.00,Wunderground v.1.15,2013-01-25 22:40:00,
2013-01-25 15:50:00,61.6,47.1,30.14,East,100,1.0,1.0,59,0.00,,,0.00,Wunderground v.1.15,2013-01-25 22:50:00,
2013-01-25 16:00:00,61.3,46.8,30.14,NW,326,1.0,1.0,59,0.00,,,0.00,Wunderground v.1.15,2013-01-25 23:00:00,
2013-01-25 16:10:00,61.3,46.8,30.14,NNE,15,0.0,0.0,59,0.00,,,0.00,Wunderground v.1.15,2013-01-25 23:10:00,
2013-01-25 16:20:00,61.2,46.8,30.14,SSE,151,0.0,0.0,59,0.00,,,0.00,Wunderground v.1.15,2013-01-25 23:20:00,
2013-01-25 16:30:00,60.9,46.5,30.14,NNE,23,0.0,1.0,59,0.00,,,0.00,Wunderground v.1.15,2013-01-25 23:30:00,
2013-01-25 16:40:00,60.7,46.7,30.13,NNE,24,0.0,0.0,60,0.00,,,0.00,Wunderground v.1.15,2013-01-25 23:40:00,
2013-01-25 16:50:00,60.5,46.5,30.13,NNW,340,1.0,1.0,60,0.00,,,0.00,Wunderground v.1.15,2013-01-25 23:50:00,
2013-01-25 17:00:00,60.2,46.7,30.13,NNW,329,0.0,0.0,61,0.00,,,0.00,Wunderground v.1.15,2013-01-26 00:00:00,
2013-01-25 17:10:00,60.0,46.5,30.13,NNW,329,0.0,0.0,61,0.00,,,0.00,Wunderground v.1.15,2013-01-26 00:10:00,
2013-01-25 17:20:00,59.6,46.6,30.13,NNW,329,0.0,0.0,62,0.00,,,0.00,Wunderground v.1.15,2013-01-26 00:20:00,
2013-01-25 17:30:00,59.0,46.4,30.13,NNW,329,0.0,0.0,63,0.00,,,0.00,Wunderground v.1.15,2013-01-26 00:30:00,
2013-01-25 17:40:00,58.4,46.3,30.13,NNW,329,0.0,0.0,64,0.00,,,0.00,Wunderground v.1.15,2013-01-26 00:40:00,
2013-01-25 17:50:00,57.7,46.4,30.13,West,273,0.0,0.0,66,0.00,,,0.00,Wunderground v.1.15,2013-01-26 00:50:00,
2013-01-25 18:01:00,57.5,46.2,30.13,West,262,0.0,0.0,66,0.00,,,0.00,Wunderground v.1.15,2013-01-26 01:01:00,
2013-01-25 18:10:00,57.3,46.4,30.13,SW,229,1.0,1.0,67,0.00,,,0.00,Wunderground v.1.15,2013-01-26 01:10:00,
2013-01-25 18:20:00,57.1,46.2,30.13,SW,229,1.0,1.0,67,0.00,,,0.00,Wunderground v.1.15,2013-01-26 01:20:00,
2013-01-25 18:30:00,56.9,46.4,30.14,SW,232,0.0,1.0,68,0.00,,,0.00,Wunderground v.1.15,2013-01-26 01:30:00,
2013-01-25 18:40:00,56.8,46.3,30.14,SW,224,1.0,1.0,68,0.00,,,0.00,Wunderground v.1.15,2013-01-26 01:40:00,
2013-01-25 18:50:00,55.9,45.9,30.13,SW,229,0.0,0.0,69,0.00,,,0.00,Wunderground v.1.15,2013-01-26 01:50:00,
2013-01-25 19:00:00,54.9,45.7,30.13,SW,229,0.0,0.0,71,0.00,,,0.00,Wunderground v.1.15,2013-01-26 02:00:00,
2013-01-25 19:10:00,55.2,47.1,30.14,SW,229,0.0,0.0,74,0.00,,,0.00,Wunderground v.1.15,2013-01-26 02:10:00,
2013-01-25 19:20:00,55.2,47.4,30.14,SW,226,0.0,1.0,75,0.00,,,0.00,Wunderground v.1.15,2013-01-26 02:20:00,
2013-01-25 19:30:00,55.3,47.5,30.14,South,180,1.0,1.0,75,0.00,,,0.00,Wunderground v.1.15,2013-01-26 02:30:00,
2013-01-25 19:40:00,55.1,48.4,30.14,SSW,203,1.0,1.0,78,0.00,,,0.00,Wunderground v.1.15,2013-01-26 02:40:00,
2013-01-25 19:50:00,54.8,48.7,30.14,SW,219,1.0,1.0,80,0.00,,,0.00,Wunderground v.1.15,2013-01-26 02:50:00,
2013-01-25 20:00:00,54.1,49.4,30.14,SW,217,0.0,0.0,84,0.00,,,0.00,Wunderground v.1.15,2013-01-26 03:00:00,
2013-01-25 20:10:00,53.1,49.6,30.14,WNW,285,0.0,0.0,88,0.00,,,0.01,Wunderground v.1.15,2013-01-26 03:10:00,
2013-01-25 20:20:00,52.2,49.7,30.14,WNW,303,1.0,1.0,91,0.00,,,0.01,Wunderground v.1.15,2013-01-26 03:20:00,
2013-01-25 20:30:00,51.6,49.4,30.14,NW,304,1.0,1.0,92,0.00,,,0.02,Wunderground v.1.15,2013-01-26 03:30:00,
2013-01-25 20:40:00,51.4,49.4,30.13,WNW,282,1.0,1.0,93,0.00,,,0.02,Wunderground v.1.15,2013-01-26 03:40:00,
2013-01-25 20:50:00,51.5,49.3,30.13,West,279,0.0,0.0,92,0.00,,,0.02,Wunderground v.1.15,2013-01-26 03:50:00,
2013-01-25 21:00:00,51.4,49.4,30.13,WNW,293,0.0,0.0,93,0.00,,,0.02,Wunderground v.1.15,2013-01-26 04:00:00,
2013-01-25 21:10:00,51.2,49.5,30.13,NW,316,1.0,1.0,94,0.00,,,0.03,Wunderground v.1.15,2013-01-26 04:10:00,
2013-01-25 21:20:00,51.1,49.4,30.13,NW,310,0.0,0.0,94,0.05,,,0.04,Wunderground v.1.15,2013-01-26 04:20:00,
2013-01-25 21:30:00,51.1,49.4,30.13,NNW,345,0.0,0.0,94,0.05,,,0.05,Wunderground v.1.15,2013-01-26 04:30:00,
2013-01-25 21:40:00,51.2,49.2,30.13,NW,306,0.0,0.0,93,0.04,,,0.06,Wunderground v.1.15,2013-01-26 04:40:00,
2013-01-25 21:50:00,51.2,49.2,30.13,WNW,294,0.0,0.0,93,0.08,,,0.07,Wunderground v.1.15,2013-01-26 04:50:00,
2013-01-25 22:00:00,50.9,49.2,30.12,WNW,287,0.0,1.0,94,0.10,,,0.09,Wunderground v.1.15,2013-01-26 05:00:00,
2013-01-25 22:10:00,50.9,49.2,30.13,WNW,289,1.0,2.0,94,0.08,,,0.10,Wunderground v.1.15,2013-01-26 05:10:00,